Temp
78 69 67 71 76 77 77 75 74 80 88 83 75 73 79 83 80 81 83 83 84 85 88 89 90 89 87 86 83 83 80 79 81 79 78 75 75 77 78 78 80 79 80 78
72 68 76 82 81 79 77 74 74 83 87 80 76 72 77 81 81 82 85 84 85 85 87 87 88 88 87 84 83 82 81 78 82 81 78 77 76 76 77 78 78 79 80 79
70 73 84 81 78 77 76 73 74 77 81 83 77 68 71 82 84 85 87 87 87 86 85 85 87 87 87 84 82 82 81 79 80 80 79 76 76 76 78 80 78 82 80 79
74 82 81 78 76 79 69 82 82 80 76 67 79 61 66 75 80 82 86 87 87 87 88 88 87 86 87 84 84 83 81 80 80 79 78 75 75 74 76 82 81 77 80 79
72 77 76 76 78 83 76 84 82 81 75 68 70 65 67 75 74 80 83 87 89 89 89 88 88 89 88 87 84 82 82 81 82 81 79 78 74 79 77 74 76 77 77 78
77 86 83 80 85 85 86 80 79 78 73 58 68 67 67 70 77 78 80 86 90 91 91 90 91 90 89 88 86 83 81 80 81 80 78 78 76 76 75 74 75 77 75 75
74 78 84 87 77 82 81 69 61 57 60 57 71 67 68 81 82 85 87 87 90 92 92 91 89 88 88 87 86 83 81 80 81 80 80 79 77 77 76 76 76 74 74 73
63 61 77 84 80 71 75 72 62 48 54 60 69 61 70 86 88 90 91 89 89 92 93 91 90 89 88 88 85 83 80 80 81 81 80 80 81 78 78 77 77 78 78 78
64 64 82 85 86 83 70 68 75 59 63 57 65 71 79 85 85 86 87 90 91 90 92 92 92 91 89 88 85 84 80 81 81 81 81 80 80 81 78 77 77 77 78 80
71 59 78 83 86 83 78 74 65 68 53 53 64 65 65 73 79 81 84 87 88 85 86 91 93 91 89 89 88 86 82 81 81 82 82 81 81 80 80 77 77 77 78 77
77 70 70 78 75 73 69 72 66 67 67 56 55 64 73 75 81 80 84 89 89 90 92 93 94 93 90 90 88 86 83 82 81 82 82 82 81 81 80 79 77 78 78 76
79 71 63 69 80 85 81 74 67 60 52 59 61 64 82 85 83 86 87 88 90 93 95 96 95 93 89 89 89 86 83 82 82 83 82 81 81 81 80 81 79 79 79 75
79 71 59 63 71 79 76 78 75 73 62 60 54 64 85 85 83 84 83 87 89 86 85 94 95 92 90 89 88 88 86 83 84 83 82 81 81 80 80 80 81 80 80 77
74 75 68 61 65 68 68 75 77 73 63 62 66 66 73 76 79 81 87 90 92 85 86 85 94 92 91 90 88 88 87 86 85 83 82 81 81 81 81 81 81 78 80 79
66 64 72 73 75 75 75 75 77 72 73 62 68 68 73 78 79 79 84 84 91 87 84 81 92 91 90 89 87 88 88 88 86 83 82 82 82 82 81 81 80 81 78 79
58 57 70 67 76 76 73 77 78 78 77 74 72 70 73 78 82 82 81 89 85 83 86 84 84 91 90 89 87 87 87 87 88 84 83 83 82 81 80 80 80 79 80 78
53 52 56 58 68 70 65 73 75 75 79 76 69 75 77 76 77 80 80 81 91 85 86 85 84 84 90 89 89 86 87 88 87 85 84 83 82 81 80 80 79 78 78 77
56 55 58 56 59 51 67 79 81 77 78 80 76 76 77 76 78 80 82 81 82 85 88 85 89 83 82 91 90 89 88 87 85 84 83 83 82 81 80 80 79 79 79 79
67 58 56 51 55 59 69 74 73 71 70 78 76 78 80 81 79 75 79 82 84 84 88 85 85 86 85 85 90 88 87 86 86 83 83 83 82 81 80 79 79 80 78 74
67 67 58 53 50 51 61 76 82 79 60 75 75 74 75 76 65 68 73 80 79 83 84 91 88 86 84 83 89 86 86 85 84 85 84 84 83 82 80 80 79 79 77 76
55 57 56 54 52 58 70 78 83 61 60 72 75 75 74 69 70 75 79 79 76 80 81 83 84 84 81 83 88 85 86 86 86 86 83 83 84 81 81 80 79 77 75 73
47 43 51 55 50 48 72 76 68 65 68 75 75 74 74 73 74 75 78 78 78 76 81 81 80 81 83 81 85 84 83 84 82 81 82 80 80 81 80 78 75 73 72 72
49 52 47 57 56 65 69 66 68 73 72 74 73 74 77 77 75 75 74 77 78 78 76 77 76 75 76 77 85 80 77 80 80 80 78 78 77 77 75 73 72 71 70 70
56 57 53 56 65 66 69 67 67 71 69 72 72 73 71 68 72 73 73 74 74 74 74 75 77 75 74 76 77 78 79 80 80 77 74 73 72 71 71 71 71 69 68 67
51 53 52 53 58 65 70 68 66 68 71 71 70 68 67 67 66 67 68 71 73 73 73 74 74 74 74 76 76 78 78 78 74 72 71 70 69 64 59 54 58 66 58 65
52 48 50 50 53 53 53 60 67 70 70 70 68 67 68 66 64 65 63 67 71 71 71 71 71 72 72 74 73 73 73 73 71 69 69 67 65 63 61 60 57 48 47 46
MSLP
999.89 1000.34 999.77 1000.14 1000.23 1000.25 999.94 999.30 998.57 997.49 997.32 998.41 999.82 1000.79 1001.14 1001.07 1002.11 1002.89 1002.89 1003.58 1004.46 1005.24 1005.69 1006.35 1006.83 1007.61 1008.53 1009.20 1009.83 1010.48 1011.19 1012.00 1012.70 1013.37 1013.91 1014.49 1014.77 1014.72 1014.75 1014.69 1014.84 1015.18 1015.26 1015.67
999.84 999.04 999.57 999.77 999.62 999.71 999.25 998.75 997.99 997.79 996.45 997.90 999.39 1000.71 1000.80 1000.57 1000.37 1001.35 1002.10 1002.65 1003.28 1004.24 1004.92 1005.65 1006.33 1007.01 1007.84 1008.64 1009.34 1010.03 1010.61 1011.43 1012.18 1012.83 1013.39 1013.86 1014.15 1014.25 1014.34 1014.48 1014.65 1014.83 1014.92 1015.20
998.63 998.33 998.97 998.90 998.69 998.64 998.36 997.88 997.47 997.93 997.63 998.30 999.86 1001.08 1001.24 1000.06 999.95 1000.60 1001.23 1001.48 1002.17 1002.79 1003.78 1004.65 1005.44 1006.15 1006.99 1007.87 1008.66 1009.41 1010.12 1010.90 1011.64 1012.34 1013.03 1013.58 1013.93 1014.05 1014.18 1014.26 1014.55 1014.41 1014.62 1015.03
997.85 997.83 997.68 997.72 997.50 997.58 997.48 996.89 997.21 997.36 998.17 998.64 999.80 1000.89 1001.31 999.93 999.75 999.84 1000.21 1000.62 1001.17 1001.84 1002.51 1003.47 1004.37 1005.22 1005.96 1006.93 1007.81 1008.72 1009.54 1010.23 1011.01 1011.74 1012.51 1013.14 1013.50 1013.93 1013.87 1013.53 1013.84 1014.12 1014.34 1014.74
995.94 996.38 996.36 996.35 996.37 996.64 995.89 996.90 997.01 997.19 997.57 998.46 999.32 1000.47 999.46 999.47 999.60 999.48 999.39 999.66 1000.00 1000.55 1001.34 1002.25 1003.02 1003.75 1004.62 1005.71 1006.78 1007.74 1008.68 1009.57 1010.30 1011.11 1011.79 1012.57 1013.04 1013.22 1013.22 1013.32 1013.52 1013.90 1014.34 1014.46
995.48 995.33 995.25 995.16 995.40 995.60 995.97 996.68 996.87 997.11 997.46 998.51 998.48 999.16 998.62 998.06 998.16 998.30 998.18 998.46 998.87 999.52 1000.10 1000.89 1001.61 1002.81 1003.81 1004.71 1005.80 1006.93 1007.91 1008.84 1009.56 1010.37 1011.24 1011.89 1012.45 1012.65 1012.82 1013.10 1013.43 1013.79 1014.15 1014.41
995.00 994.52 994.30 994.29 994.60 994.88 995.35 996.29 997.04 997.50 997.29 996.92 997.25 997.58 996.26 995.93 996.14 995.98 996.44 996.91 997.56 998.17 999.00 999.98 1001.13 1002.06 1002.88 1003.77 1004.77 1005.98 1007.07 1008.09 1008.84 1009.63 1010.43 1011.05 1011.62 1011.97 1012.28 1012.69 1013.07 1013.62 1014.04 1014.24
994.83 994.12 993.30 992.84 993.19 993.76 994.17 995.34 995.83 996.37 996.94 996.93 996.21 995.47 994.53 994.00 993.80 994.17 995.00 995.77 996.79 997.13 997.96 998.83 999.65 1000.46 1001.52 1002.63 1003.85 1004.98 1006.13 1007.17 1008.02 1008.78 1009.52 1010.17 1010.79 1011.27 1011.59 1012.01 1012.54 1012.96 1013.27 1013.56
993.75 993.21 992.31 992.25 992.24 992.88 993.70 993.52 995.09 996.42 996.92 996.68 995.61 994.47 993.39 993.06 993.38 994.06 994.42 994.92 995.99 996.52 997.04 997.57 998.40 999.24 1000.40 1001.59 1002.53 1003.60 1005.18 1006.25 1007.11 1007.85 1008.62 1009.30 1009.96 1010.48 1010.81 1011.25 1011.68 1012.29 1012.59 1012.98
992.92 992.80 992.25 991.75 991.85 991.95 992.20 993.51 994.68 995.23 996.21 995.97 995.25 994.13 992.95 992.46 992.86 993.36 993.78 993.83 994.36 995.01 996.11 996.67 997.04 998.09 999.14 1000.06 1001.22 1002.67 1003.96 1004.93 1006.03 1007.03 1007.65 1008.34 1009.00 1009.70 1010.20 1010.66 1011.02 1011.48 1011.88 1012.32
992.57 992.81 992.00 991.26 990.59 991.28 991.84 992.41 993.78 994.63 995.39 995.50 995.25 993.01 992.08 991.75 991.82 992.52 992.76 992.67 992.90 993.05 993.97 995.07 995.77 996.61 997.64 999.13 1000.31 1001.53 1002.93 1004.15 1005.22 1006.05 1006.76 1007.49 1008.09 1008.75 1009.55 1009.99 1010.39 1010.74 1011.22 1011.73
990.90 991.79 991.74 990.66 990.21 990.00 990.42 991.30 992.82 994.13 994.90 995.06 994.87 992.57 991.10 991.16 991.31 990.78 991.16 992.13 992.13 992.36 992.58 993.91 994.59 995.47 997.10 998.23 999.47 1000.54 1001.91 1003.01 1003.90 1004.90 1005.86 1006.48 1007.20 1007.97 1008.68 1009.10 1009.56 1009.98 1010.51 1011.12
989.79 990.12 991.35 990.64 990.04 989.48 989.20 990.38 991.34 992.65 994.20 993.98 994.38 991.86 991.11 990.89 991.35 991.22 992.61 992.65 992.15 991.81 992.08 992.69 993.61 994.93 996.09 997.18 998.27 999.50 1000.70 1001.87 1002.95 1004.09 1004.86 1005.68 1006.33 1007.08 1007.55 1008.13 1008.68 1009.22 1009.77 1010.28
990.28 988.78 988.94 988.69 988.59 989.24 989.04 989.23 990.09 991.41 992.34 992.60 991.85 992.58 991.42 990.58 991.07 990.51 990.49 991.26 991.79 992.11 991.66 992.34 992.91 994.01 994.99 995.95 996.97 998.25 999.39 1000.51 1001.70 1002.80 1003.71 1004.47 1005.18 1005.77 1006.42 1007.15 1007.87 1008.38 1008.84 1009.45
991.13 989.75 987.87 987.98 988.51 988.39 988.26 988.21 988.65 989.42 990.06 991.19 991.60 991.82 991.11 990.88 990.57 990.58 990.46 991.01 991.12 991.14 991.19 991.37 992.19 993.38 994.50 995.48 996.39 997.21 998.24 999.32 1000.41 1001.59 1002.43 1003.04 1003.96 1004.73 1005.68 1006.39 1006.94 1007.54 1008.19 1008.63
993.42 991.06 988.55 987.57 987.68 987.97 987.63 987.38 987.54 987.96 988.84 989.53 990.27 989.96 990.28 990.21 990.34 990.00 990.25 989.84 990.89 991.36 990.88 991.63 991.82 992.40 993.39 994.50 995.52 996.28 997.31 998.32 999.22 1000.26 1000.83 1001.99 1003.08 1003.98 1004.68 1005.44 1006.10 1006.83 1007.49 1008.14
995.12 992.87 990.61 987.97 987.51 987.60 987.56 985.57 986.83 987.02 987.26 988.12 988.51 989.29 989.98 989.98 990.19 990.19 989.76 990.02 989.68 990.55 991.39 991.16 991.54 992.26 992.95 993.72 994.42 995.46 996.04 997.16 998.32 999.12 1000.05 1000.89 1001.89 1002.80 1003.62 1004.57 1005.41 1006.07 1006.79 1007.63
994.31 993.30 991.75 988.66 988.16 987.61 985.35 985.73 985.95 986.54 986.75 986.96 987.59 988.44 988.85 989.15 989.28 989.82 989.65 989.76 989.83 990.23 990.53 991.48 991.01 991.43 992.20 992.61 993.52 994.02 995.13 996.16 997.09 998.14 999.06 999.91 1000.70 1001.62 1002.75 1003.73 1004.53 1005.46 1006.24 1006.88
993.18 992.71 991.69 989.46 988.17 987.16 986.52 985.44 985.46 986.04 986.78 986.65 987.07 987.53 987.97 988.13 988.62 988.91 989.33 989.16 989.45 990.01 989.94 990.18 990.68 990.98 991.16 992.03 992.53 993.58 994.56 995.39 996.23 997.19 997.94 998.68 999.61 1000.69 1001.80 1002.72 1003.72 1004.67 1005.59 1006.47
991.92 991.39 991.51 989.78 988.57 987.19 986.26 985.96 985.50 986.14 987.28 986.98 987.14 987.98 988.28 988.40 989.21 989.63 989.69 989.55 989.71 989.76 989.17 989.31 989.58 990.07 990.99 991.52 991.93 992.77 993.62 994.67 995.57 996.21 996.74 997.67 998.78 999.84 1000.84 1002.00 1003.13 1003.94 1004.85 1005.74
992.34 991.51 990.58 989.50 989.00 987.75 986.48 986.34 986.02 987.28 988.26 987.71 987.56 988.00 988.49 989.15 989.67 989.41 988.96 988.91 989.28 989.45 989.35 988.93 989.15 989.92 990.67 990.85 991.58 992.24 992.86 993.45 993.92 995.19 996.38 997.33 998.24 999.27 1000.40 1001.61 1002.69 1003.54 1004.55 1005.53
995.15 995.22 992.73 990.49 989.67 989.03 987.83 987.25 987.52 988.31 988.38 988.14 988.41 988.58 988.89 989.35 989.55 989.71 989.57 989.34 989.20 989.46 989.19 988.96 989.29 989.48 989.43 990.10 990.87 991.54 992.36 992.55 993.87 995.08 996.25 997.26 998.23 999.28 1000.30 1001.33 1002.57 1003.70 1004.63 1005.57
996.84 996.59 995.64 993.46 990.99 989.97 989.04 989.74 989.67 989.07 989.08 989.49 989.48 989.35 989.22 989.85 990.26 990.39 990.30 990.08 989.98 989.74 989.60 989.60 990.15 990.14 990.06 990.03 990.01 991.13 991.94 992.54 993.90 995.34 996.57 997.52 998.54 999.51 1000.49 1001.58 1002.74 1004.13 1004.95 1005.83
997.15 997.46 996.20 994.01 990.57 990.40 991.08 990.71 990.51 991.05 991.55 990.63 990.95 990.89 990.70 991.37 991.76 991.86 991.60 991.61 991.57 991.39 991.07 990.76 990.75 990.99 991.48 991.22 990.92 991.22 992.02 992.81 994.20 995.88 997.04 998.19 999.06 1000.18 1001.30 1002.61 1003.54 1004.56 1005.32 1006.13
998.61 998.08 997.13 995.38 993.07 992.64 992.39 991.74 991.67 991.44 992.35 992.80 992.47 992.38 992.62 992.31 993.14 993.19 993.30 993.15 992.95 992.87 992.71 992.26 991.88 991.82 992.14 992.23 992.54 992.50 992.98 993.48 995.45 996.94 997.97 999.08 1000.18 1001.30 1002.75 1003.72 1004.78 1005.32 1005.98 1005.99
999.53 999.60 998.49 997.63 997.19 997.21 996.49 994.94 993.85 993.03 993.05 993.98 993.66 993.57 993.68 994.02 994.53 994.32 994.56 994.41 994.21 994.20 994.29 994.07 993.52 993.06 993.40 993.16 993.61 994.14 994.30 994.66 996.27 997.72 998.98 999.93 1000.78 1002.01 1003.14 1004.41 1005.51 1006.11 1006.77 1006.86
Wind_Speed
11 8 16 14 15 10 15 14 16 13 11 10 9 10 13 15 10 11 20 20 20 20 15 15 16 16 15 14 14 14 10 12 11 7 7 4 4 3 3 4 6 8 6 7
11 19 14 13 12 18 20 19 20 14 19 11 18 12 14 15 17 15 19 21 22 20 18 17 16 16 18 15 16 15 13 11 12 9 5 4 4 3 3 2 5 7 8 7
18 9 17 18 18 19 22 21 16 8 6 5 13 1 8 11 11 14 15 22 22 23 21 18 20 18 17 18 17 16 14 12 12 11 6 3 2 1 2 3 5 8 7 6
14 18 19 22 22 19 19 23 20 18 13 10 14 6 14 16 17 16 19 21 22 22 21 21 22 19 20 17 17 17 14 14 11 10 10 7 5 5 4 6 7 5 7 7
19 18 21 20 24 19 22 14 19 20 15 15 14 6 8 19 18 20 16 22 22 22 23 24 24 24 21 19 19 18 18 15 14 12 10 8 5 7 5 3 6 6 6 7
18 11 19 20 16 21 14 15 18 17 11 6 19 12 9 9 21 14 8 10 24 22 24 24 25 23 20 19 19 18 20 18 15 14 11 11 9 8 5 4 6 7 5 5
17 23 17 21 16 17 20 11 12 10 11 10 14 17 12 12 13 22 25 20 17 25 23 23 23 22 21 21 22 20 21 19 18 18 15 14 9 10 8 8 7 7 5 3
14 17 23 13 23 12 19 17 13 13 12 10 9 11 12 18 16 28 21 15 13 14 23 23 23 25 25 23 22 22 23 21 20 19 18 15 14 6 7 7 7 7 9 8
16 17 8 22 18 20 9 21 12 5 9 6 8 10 10 20 15 20 20 18 10 8 13 25 23 24 24 23 24 24 23 22 21 20 17 16 14 14 8 8 7 7 7 9
13 7 21 16 23 16 19 6 14 13 15 20 15 12 10 10 19 18 19 16 14 8 11 16 23 22 23 25 22 22 23 25 23 21 17 15 16 14 11 7 9 8 8 7
24 18 17 14 20 21 8 18 10 8 13 11 11 16 6 11 20 21 20 25 24 22 25 26 24 23 24 23 22 21 22 23 21 21 19 17 16 15 13 11 8 10 8 9
23 17 18 25 19 24 25 16 10 9 5 5 8 15 8 13 16 25 24 18 15 22 33 27 22 23 20 24 22 23 20 22 22 21 19 19 16 15 15 15 12 11 11 9
18 21 12 19 17 20 27 19 17 15 6 15 5 16 16 11 9 16 8 8 10 9 10 20 22 21 22 22 23 23 22 22 21 20 20 18 17 17 17 17 15 13 13 11
9 20 30 20 20 4 11 22 19 19 14 12 23 10 13 4 9 11 18 14 10 10 10 14 21 21 22 22 23 23 23 22 22 21 20 20 19 19 18 16 17 11 14 15
2 18 22 27 17 14 24 14 26 23 21 14 13 15 14 13 10 11 14 11 17 7 7 10 21 20 19 20 20 22 22 22 22 22 21 21 19 18 16 16 16 17 11 13
11 10 19 18 29 27 26 17 21 28 23 19 13 16 5 8 7 10 9 21 7 5 9 9 13 23 23 22 20 21 21 22 22 22 23 20 18 17 17 16 15 14 15 11
11 4 10 13 9 14 23 30 21 11 17 18 19 14 7 9 4 5 4 7 14 8 9 9 11 16 19 20 21 21 22 20 22 21 20 20 19 18 18 15 14 14 15 10
22 15 9 6 7 11 10 12 17 14 8 15 10 11 11 10 9 9 8 3 3 4 6 8 10 8 11 19 20 20 18 21 21 21 20 19 19 19 17 16 15 13 12 14
17 11 7 5 10 1 8 7 5 7 12 5 7 9 8 9 7 5 2 8 12 11 10 8 6 6 9 13 18 18 19 19 21 20 21 20 20 18 17 18 15 13 11 7
16 14 9 3 7 16 3 6 6 3 3 5 12 9 9 6 4 4 2 4 3 8 8 12 8 7 8 9 16 18 19 18 19 20 20 18 18 18 17 17 15 11 10 11
5 6 11 4 4 5 2 5 4 9 8 6 9 9 8 5 5 4 8 7 1 3 6 8 10 9 11 10 16 18 19 21 19 15 12 14 16 16 16 15 12 12 10 9
5 6 4 3 3 3 8 3 8 6 3 8 6 6 7 5 4 4 6 8 7 3 8 5 7 8 10 13 16 17 18 14 11 11 13 12 14 12 12 15 10 11 10 10
3 2 6 11 3 2 7 6 13 6 8 6 5 7 5 8 8 12 9 9 6 8 8 8 7 8 7 4 14 15 11 15 14 14 13 13 12 12 11 13 12 9 9 9
5 9 5 10 7 3 3 3 14 17 15 15 14 15 17 18 15 14 14 12 10 8 8 6 11 11 9 8 10 12 13 15 15 14 13 11 13 13 11 8 8 9 7 7
2 8 9 7 16 13 13 3 10 14 11 15 17 17 16 18 14 13 13 12 11 10 9 8 9 11 10 11 11 11 13 17 16 15 14 14 11 12 9 10 5 6 5 5
4 1 3 3 7 3 5 18 14 15 17 13 15 17 16 16 13 13 11 8 9 9 8 8 9 11 10 13 14 13 14 18 17 14 10 10 10 9 8 9 9 18 11 10
Wind_Direction
213 210 224 218 216 225 245 248 252 252 198 150 142 161 190 182 170 192 172 175 178 188 189 179 177 166 166 167 165 175 168 162 169 171 171 155 166 191 218 212 156 179 173 149
220 222 221 231 224 223 244 252 261 293 150 133 165 182 223 213 202 185 184 178 180 180 184 177 180 173 172 175 175 177 177 153 172 173 172 153 173 205 209 154 177 182 174 172
217 224 215 228 230 218 230 241 255 230 18 332 172 1 231 230 180 194 200 180 182 180 183 179 182 178 173 177 176 177 174 161 165 159 158 139 141 251 222 186 185 200 173 168
227 224 220 218 232 224 224 234 247 256 195 202 170 207 229 211 211 207 200 184 184 185 182 180 182 181 179 178 175 174 171 165 166 158 168 161 180 199 218 197 196 167 164 174
224 214 226 223 222 226 234 230 240 250 256 143 248 244 211 200 213 213 192 187 190 185 183 184 184 187 183 174 177 171 174 169 173 177 168 174 186 204 215 184 167 163 173 177
236 225 227 235 228 224 238 233 248 253 250 192 210 191 242 183 190 186 188 204 190 189 188 185 187 181 183 177 172 171 173 179 172 178 178 184 191 205 206 162 150 160 164 166
231 237 236 222 230 216 220 218 235 246 241 238 182 193 209 212 187 175 187 202 204 189 188 189 183 186 185 179 176 174 175 180 179 179 183 190 194 208 197 169 160 157 165 169
220 232 228 221 218 208 213 214 221 216 226 245 227 203 220 204 209 194 182 196 195 191 190 188 185 187 187 183 178 174 179 180 181 183 189 191 201 203 206 176 173 175 176 183
204 236 222 226 235 212 229 216 227 253 254 256 231 255 259 213 197 188 183 165 193 236 201 189 186 186 185 183 180 180 178 181 183 182 187 192 194 204 200 188 173 181 181 181
245 247 223 240 224 235 211 192 209 225 227 244 251 244 238 188 179 173 182 185 193 212 183 213 185 184 184 185 179 178 177 181 182 186 187 191 196 200 202 182 191 180 195 170
221 242 258 230 214 214 216 222 227 198 223 232 240 250 244 187 179 175 186 197 196 190 188 210 192 184 183 182 177 178 177 179 183 185 188 192 195 196 197 198 192 188 190 165
203 215 240 248 265 205 215 207 195 216 263 252 233 253 272 222 199 185 188 198 221 190 201 201 182 180 170 179 178 180 175 180 184 185 186 194 194 193 197 206 198 191 196 171
197 213 222 251 260 253 211 210 201 218 179 235 208 247 256 244 172 152 164 235 253 240 167 182 181 176 177 177 177 179 178 182 182 183 187 191 194 195 200 203 203 195 195 188
275 204 211 221 236 226 216 207 198 199 219 233 240 265 280 242 181 171 164 209 223 232 206 175 181 177 180 177 175 180 184 179 179 183 188 192 194 198 201 200 203 192 194 193
282 252 207 213 216 227 241 220 202 209 209 203 233 233 240 236 200 188 176 214 237 222 179 171 172 174 177 177 180 182 183 182 179 183 189 195 195 197 199 203 200 205 195 196
339 296 218 206 209 222 244 245 224 210 216 227 232 248 203 253 233 185 226 182 176 242 178 190 153 170 176 180 181 182 183 185 182 186 193 190 192 193 197 201 200 195 202 195
278 311 304 206 180 206 232 233 246 239 210 200 221 235 230 266 225 195 214 259 193 239 210 181 180 169 179 182 184 184 186 181 186 193 190 191 189 193 197 194 192 192 195 184
263 284 282 184 129 212 247 205 224 242 245 209 199 177 197 201 223 181 160 158 169 240 273 223 202 187 171 185 184 186 177 182 186 191 193 190 190 193 189 189 189 185 186 193
242 251 276 176 190 326 271 249 197 200 253 232 184 208 213 212 183 240 225 186 189 197 220 192 191 210 172 168 184 181 179 185 186 188 192 191 189 187 186 188 181 182 175 157
240 247 243 227 168 215 194 228 264 72 200 86 97 87 82 65 83 230 67 78 2 260 207 211 230 167 189 193 170 168 179 178 189 195 194 185 183 183 181 174 173 168 159 164
299 285 247 190 186 283 103 277 237 160 212 74 91 92 80 101 169 259 332 329 153 295 252 229 189 187 191 184 169 176 180 187 188 188 168 170 175 170 165 162 162 155 155 148
35 13 300 261 153 220 337 227 178 171 81 95 69 88 92 69 20 312 295 286 286 105 43 314 198 186 191 172 168 175 182 181 153 133 146 144 147 150 150 146 141 134 135 141
227 185 307 312 120 318 48 84 16 38 94 38 59 16 113 46 33 39 35 23 34 51 58 58 77 53 36 97 168 152 147 129 124 122 124 126 121 125 130 129 127 114 114 121
22 12 275 311 32 80 224 15 63 48 33 61 55 57 74 70 49 49 42 30 29 19 53 68 78 73 51 45 84 106 116 114 114 113 106 109 111 105 103 111 112 125 126 125
351 310 320 279 13 350 25 126 122 102 71 56 61 63 61 71 56 58 37 35 39 35 32 44 78 90 83 80 72 88 105 108 105 103 102 102 95 98 90 66 56 100 55 124
149 123 324 15 331 291 320 16 15 107 108 98 81 67 60 60 52 54 43 36 42 42 21 36 41 67 57 83 87 82 93 105 110 118 114 119 117 108 113 106 81 52 59 47